Location: Blackrock Ranger Station
(36.0936°N, 118.2611°W)
Time: 08:51:42
(UTC-07:00)

AO-7 - Pass Details

Date: 20 February 2026
Orbit: 1440 x 1458 km, 102.0° (Epoch: 15 March)

Event Time Altitude Azimuth Distance (km) Brightness Sun altitude
Rises 05:40:00 0° 24° (NNE) 4,559 ? -11.7°
Reaches altitude 10° 05:42:59 10° 30° (NNE) 3,579 ? -11.1°
Maximum altitude 05:50:53 45° 101° (ESE) 1,904 ? -9.5°
Drops below altitude 10° 05:58:44 10° 172° (S) 3,568 ? -7.9°
Sets 06:01:41 0° 178° (S) 4,544 ? -7.3°
